Location: Dyersburg
(36.0438°N, 89.3789°W)
Time: 05:58:35
(UTC+00:00)

Explorer 11/Cluster Stage 4 - All Passes

Search period start: 24 February 2020 00:00
Search period end: 05 March 2020 00:00
Orbit: 467 x 1259 km, 28.8° (Epoch: 23 February)

Date Brightness Start Highest point End Pass type
(mag) Time Alt. Az. Time Alt. Az. Time Alt. Az.
24 Feb - 06:06:05 10° SSW 06:10:23 21° SSE 06:14:04 10° ESE night (unlit)
24 Feb - 07:54:02 10° WSW 07:58:29 31° S 08:02:13 10° ESE night (unlit)
24 Feb - 09:42:47 10° WSW 09:46:21 26° S 09:49:33 10° SE visible
24 Feb - 11:33:04 10° SW 11:33:56 11° SSW 11:34:48 10° S visible
25 Feb - 04:09:18 10° S 04:11:23 12° SSE 04:13:20 10° SE night (unlit)
25 Feb - 05:54:47 10° SW 05:59:39 25° SSE 06:03:45 10° ESE night (unlit)
25 Feb - 07:43:03 10° WSW 07:47:48 34° S 07:51:44 10° ESE night (unlit)
25 Feb - 09:32:01 10° WSW 09:35:42 25° SSW 09:38:56 10° SE visible
26 Feb - 03:56:59 10° S 04:00:33 15° SSE 04:03:49 10° SE night (unlit)
26 Feb - 05:43:32 10° SW 05:48:54 28° SSE 05:53:23 10° ESE night (unlit)
26 Feb - 07:32:05 10° WSW 07:37:07 36° S 07:41:15 10° ESE night (unlit)
26 Feb - 09:21:15 10° WSW 09:25:01 24° SSW 09:28:18 10° SE night (unlit)
27 Feb - 03:45:09 10° SSW 03:49:43 18° SSE 03:53:49 10° ESE night (unlit)
27 Feb - 05:32:19 10° SW 05:38:08 32° S 05:42:57 10° ESE night (unlit)
27 Feb - 07:21:06 10° WSW 07:26:25 37° S 07:30:44 10° ESE night (unlit)
27 Feb - 09:10:28 10° WSW 09:14:19 23° SSW 09:17:40 10° SE night (unlit)
28 Feb - 03:33:31 10° SSW 03:38:51 21° SSE 03:43:36 10° ESE visible
28 Feb - 05:21:07 10° SW 05:27:21 36° S 05:32:28 10° ESE night (unlit)
28 Feb - 07:10:06 10° WSW 07:15:41 39° S 07:20:13 10° ESE night (unlit)
28 Feb - 08:59:40 10° WSW 09:03:36 22° SSW 09:06:59 10° SSE night (unlit)
29 Feb - 03:22:02 10° SSW 03:27:59 24° SSE 03:33:15 10° ESE visible
29 Feb - 05:09:58 10° WSW 05:16:32 39° S 05:21:57 10° ESE night (unlit)
29 Feb - 06:59:07 10° WSW 07:04:56 39° S 07:09:39 10° ESE night (unlit)
29 Feb - 08:48:52 10° WSW 08:52:51 21° SSW 08:56:16 10° SSE night (unlit)
01 Mar - 01:26:03 10° S 01:28:35 12° SSE 01:31:04 10° SE visible
01 Mar - 03:10:38 10° SW 03:17:04 28° SSE 03:22:48 10° ESE visible
01 Mar - 04:58:50 10° WSW 05:05:42 42° S 05:11:24 10° ESE night (unlit)
01 Mar - 06:48:06 10° WSW 06:54:10 39° S 06:59:05 10° ESE night (unlit)
01 Mar - 08:38:05 10° WSW 08:42:05 20° SSW 08:45:31 10° SSE night (unlit)
02 Mar - 01:13:42 10° S 01:17:38 14° SSE 01:21:26 10° ESE visible
02 Mar - 02:59:19 10° SW 03:06:09 31° SSE 03:12:16 10° ESE visible
02 Mar - 04:47:43 10° WSW 04:54:52 44° S 05:00:49 10° ESE night (unlit)
02 Mar - 06:37:06 10° WSW 06:43:22 39° S 06:48:28 10° ESE night (unlit)
02 Mar - 08:27:18 10° WSW 08:31:16 19° SSW 08:34:43 10° SSE night (unlit)
03 Mar - 01:01:50 10° S 01:06:39 17° SSE 01:11:19 10° ESE visible
03 Mar - 02:48:03 10° SW 02:55:13 34° SSE 03:01:41 10° ESE visible
03 Mar - 04:36:38 10° WSW 04:43:59 47° S 04:50:11 10° ESE visible
03 Mar - 06:26:06 10° WSW 06:32:33 39° SSW 06:37:49 10° SE night (unlit)
03 Mar - 08:16:33 10° WSW 08:20:26 18° SSW 08:23:50 10° SSE night (unlit)
04 Mar - 00:50:12 10° SSW 00:55:38 19° SSE 01:00:58 10° ESE visible
04 Mar - 02:36:52 10° SW 02:44:15 38° SSE 02:51:02 10° E visible
04 Mar - 04:25:34 10° WSW 04:33:06 48° S 04:39:32 10° ESE visible
04 Mar - 06:15:06 10° W 06:21:42 38° SSW 06:27:09 10° SE night (unlit)
04 Mar - 08:05:50 10° WSW 08:09:34 16° SSW 08:12:54 10° S night (unlit)
